Startpagina
METAR-TAF:

METAR-TAF

Vliegvelden :

Fort Collins-Loveland Municipal Airport

Fort Collins / Loveland, Colorado, Verenigde Staten

breedte: 40-27N, lengte: 105-01W, hoogte: 1529 m

Actueel weer

Dit bericht is 39 minuten geleden gemaakt, om 11:56 UTC
Weinig wind
Temperatuur 14°C
Vochtigheid 67%
Druk 1013 hPa
Zicht: 16.1 km
Onbewolkt

METAR: KFNL 191156Z AUTO 00000KT 10SM CLR 14/08 A2992 RMK AO2 SLP065 6//// 7//// T01440078 10189 20128 55003 PNO $

Tijdstip: 06:35 (12:35 UTC)


TAF: ontbreekt

Waarnemingen en weersverwachtingen van meer dan 4000 vliegvelden (METAR en TAF).

De beschikbare stations zijn de gele en rode punten op de kaart.

Ga met uw muis naar het station om de naam te zien.

Klik dan om waarnemingen en weersverwachtingen te zien.

kaart wijzigen: klik op de groene knoppen met een zwart kruis om in te zoomen, op de groene knop met een streepje om uit te zoomen of op de groene pijlen voor aangrenzende kaarten.


METAR-TAF: